CZ-6A DEB, 56685

Orbit data source: Space-Track

CZ-6A DEB, 56685 is space debris in SSO originally from a launch on Fri, 11 Nov 2022 UTC launched from the Taiyaun Space Center, China (TSC). Debris objects in space refer to the collection of defunct objects orbiting the Earth. Examples of debris include non-operational satellites, rocket bodies, and fragments generated from explosions, collisions, or faulty payload assembly.

Loading next visibility...
Identifier
56685, 2022-151AHM
Orbit
SSO
Country
Flag of CNCN / PRC
Related business
Manufacturer
SAST
Mission
Spacecraft
Bus & Motor
Unknown
Mass
Unknown
Launch date (UTC)
2022-11-11 (3 years ago)
Launch vehicle
Unknown
Launch site
Taiyaun Space Center, China (TSC)
Object type
Payload
Rocket body
Debris
Shape & HBR
Unknown shape, 0.1 m
Radar Cross Section
Small (<0.1 m²)

Expand to show TLE details & history
Last TLE update: 3 days ago

TLE from 3 days ago
0 CZ-6A DEB
1 56685U 22151AHM 25348.73034957  .00002968  00000-0  14589-2 0  9995
2 56685  98.8183 351.5076 0043303 121.3701 239.1722 14.17934082135132
Epoch: 2025-12-14T17:31Z
TLE epoch observation values (Epoch: 2025-12-14T17:31:42.202Z)
Latitude
-0.00001°
Longitude
4.94269°
Altitude
851.36 km
Speed
7.419 km/s
True Right ascension
23h 26m 01s
True Declination
0° 00' 00"
Sunlit
Object was in daylight at epoch
Visualization orbit readout
Latitude
Unknown
Longitude
Unknown
Altitude
Unknown
Speed
Unknown
Apparent Right ascension
Unknown
Apparent Declination
Unknown
Sunlit
N/A
Visualization observer readout
Local Sidereal Time
00:47:07
Azimuth
Unknown
Elevation
Unknown
Doppler factor
Unknown
Orbital elements
Apogee altitude
860.726 km
Perigee altitude
798.303 km
Semi-major axis
7,207.652 km
Eccentricity
0.00433
Inclination
98.8183°
RAAN
351.5076°
Arg. of periapsis
121.3701°
True anomaly
238.74728°
Mean anomaly
239.1722°
Eccentric anomaly
238.95962°
Mean motion
3.54693 °/min
Orbital period
101.5 mins
BSTAR
0.0014589
Loading maneuver chart data...
Computing Atmospheric mass density...
Loading historical data...
Loading historical data...
Loading historical data...
Loading historical data...
Loading historical data...
Loading historical data...
Loading historical data...

Documentation

Showing up to 5 results
|